Find Kosmos-830

NORAD ID: 8894 Int'l Des: 1976-054 Owner: GUKOSR Country: SU operational
LEOCIRCULAR

Live-Position

3D-Globus wird geladen...

Über Kosmos-830

Beschreibung wird geladen...

Nächste Überflüge

Passes for default location (London). Set your location on the main map for personalized predictions.

Höhenverlauf

Loading altitude history...

Zweizeiliger Elementsatz

1 08894U 76054F 26107.15602250 .00000013 00000-0 20177-3 0 9992
2 08894 74.0009 174.6818 0015228 50.4833 336.3998 12.46259724267274
Epoch: 17. Apr. 2026 • Age: 13 hours

Aktueller Status

Höhe 1516.6 km
Geschwindigkeit 7.10 km/s
Subsatellitenpunkt -72.96°S, 31.85°W
Typ other

Most Searched